Погода в Семлячики

Погода в Семлячики : погода сейчас, прогноз погоды и архив. Всё, что Вы хотите узнать о погоде в Семлячики!

Хотите узнать прогноз погоды в Семлячики? Тогда Вам сюда: Погода в Семлячики

Поиск расширенной информации на нашем сайте:

Другие новости

Новости СМИ2

Главная страница сайта

Новости сайта

03.07.2017

Напоминаем, что на нашем специализированном сайте Метеоцентр.Азия вы можете получить высокодетализированные автоматические прогнозы погоды по пунктам России, СНГ и мира в авиационном формате (включающие направление и скорость ветра, видимость, явления погоды, количество и форму облачности, нижнюю и верхнюю границу облачности).

Рекомендуем: перевозка пассажиров в Воронеже

Погода в Семлячики - сегодня

Время (UTC), дата Ветер
(°,м/с) 
Видим.   Явления Облачность Т
(°С)
Тd
(°С)
f(%) Тe
(°С)
Pmin
(гПа)
dP
(гПа)
Po
(мм)
O2
(г/м3)
Тmin Tmax R s Состояние
почвы
03 21.05.18 070 (В) 20000 м    10/10 300 м 
[St]
+2.3 +1.3 93 1015.2  -2.8  759  303           
06 21.05.18 070 (В) 20000 м    10/10 300 м 
[St]
+2.3 +1.4 94 -1  1011.9  -3.3  756  302           
09 21.05.18 060 (СВ) 9-11{12}  10 км  слаб. морось  10/10 300 м 
[St]
+2.3 +1.7 96 -2  1008.9  -2.9  754  301    +3.5  0.0     
21 21.05.18 040 (СВ) 8{15}  20000 м    10/10 300 м 
[Sc diur, vesp]
+4.1 +1.2 81 +1  993.5  -3.3  743  295  +1    мокрый или
старый снег
10-40% 
03 22.05.18 170 (Ю) 20000 м    10/10 600 м 
[Sc]
+4.8 +3.2 89 +4  990.9  -1.8  741  293           
06 22.05.18 170 (Ю) 20000 м    8/6 600 м средняя, верхняя 
[Sc|Ac trans|Ci sp]
+5.6 +2.7 82 +5  989.7  -1.2  740  292           
12 22.05.18 290 (З) 20000 м    6/6 600 м 
[Sc]
+5.2 +1 74 +4  991.3  0.9  741  293           
15 22.05.18 310 (СЗ) 6{10}  20000 м    6/6 600 м 
[Sc]
+5.1 -0.5 67 +3  991.1  -0.1  741  293           
18 22.05.18 300 (СЗ) 6{12}  20000 м    9/4 600 м средняя, верхняя 
[Sc|Ac trans|Ci fib]
+5.1 -2 60 +3  992.4  1.2  742  294           
21 22.05.18 320 (СЗ) 7-11{13}  20000 м    10/5 1000 м средняя, верхняя 
[Sc|Ac trans|Ci fib]
+6.4 -2.1 55 +4  994.2  1.8  743  293  +3.6         
03 23.05.18 170 (Ю) 2{11}  20000 м    9/0 средняя, верхняя 
[Ac trans|Ci fib]
+6.2 +2.8 79 +6  997.4  1.9  746  293           
06 23.05.18 180 (Ю) 20000 м    8/0 средняя, верхняя 
[Ac trans|Ci fib]
+7.4 +3.5 76 +7  998.9  1.6  747  292           
12 23.05.18 290 (З) 20000 м    8/0 средняя, верхняя 
[Ac trans|Ci fib]
+3.4 +2.3 92 +3  1003.9  2.6  750  298           
15 23.05.18 360 (С) 20000 м    8/0 средняя, верхняя 
[Ac trans|Ci fib]
+3.3 +1.9 91 +3  1005.5  1.5  752  299           
18 23.05.18 210 (ЮЗ) 20000 м    3/3 600 м 
[Sc]
+2.4 +1.3 92 +3  1006.7  1.2  752  300           
00 24.05.18 170 (Ю) 0500 м  туман  ?/?  
+4.1 +2.9 92 +5  1008.9  1.2  754  299           
03 24.05.18 040 (СВ) 20000 м  {туман}  10/10 300 м 
[St]
+6.2 +4 86 +7  1010.4  1.5  755  297           
06 24.05.18 070 (В) 20000 м  {туман}  8/8 600 м 
[Sc]
+6 +3.4 83 +7  1011.3  756  298           
12 24.05.18 330 (СЗ) 20000 м    10/10 600 м 
[Sc]
+3.7 +2.3 91 +2  1013.5  0.9  758  301           
15 24.05.18 340 (С) 20000 м    10/10 600 м 
[Sc]
+3.6 +2.1 90 +3  1014.2  0.7  758  301           
18 24.05.18 280 (З) 20000 м    9/9 600 м 
[Sc]
+2.6 +1.2 90 +3  1014.6  0.4  758  303           
21 24.05.18 180 (Ю) 20000 м    9/9 600 м 
[Sc]
+3.1 +1.5 89 +1  1015.4  0.8  759  302  +2.6      мокрый или
старый снег
10-40% 
00 25.05.18 180 (Ю) 20000 м    9/4 600 м верхняя 
[Sc|Ci fib]
+4.9 +2.5 84 +3  1015.7  0.3  759  300           
03 25.05.18 120 (ЮВ) 20000 м    10/10 600 м 
[Sc]
+4.4 +2.3 86 +3  1016.2  0.5  760  301           
06 25.05.18 040 (СВ) 20000 м    10/10 600 м 
[Sc]
+4.8 +2.4 84 +4  1016.2  760  300           
Время (UTC), дата Ветер
(°,м/с) 
Видим.   Явления Облачность Т
(°С)
Тd
(°С)
f(%) Тe
(°С)
Pmin
(гПа)
dP
(гПа)
Po
(мм)
O2
(г/м3)
Тmin Tmax R s Состояние
почвы

Для получения пояснительной информации подведите курсор к названию столбца.

ПОГОДА в Семлячики - архив

Всё, что Вы хотите узнать о погоде в Семлячики - удобно и подробно!

Выберите нужную дату (начиная с 1 января 2015* года) и нажмите кнопку "Найти".
Будут отображены архивные сводки погоды по пункту Семлячики, начиная с указанной даты.


Отображать данные в формате CSV (для использования в таблицах Excel)


Внимание! Наш архив погоды предназначен исключительно для личного некоммерческого использования в познавательных целях. Если Вам необходимы официальные справки о состоянии погоды (для производственных, юридических, коммерческих и т.п. целей), обращайтесь в органы Росгидромета.

*Примечание: данная дата относится к архиву по метеостанциям СССР (Россия, СНГ, Балтия).
Архив по метеостанциям Зарубежной Европы и Азии (кроме Китая) хранится 10 дней, по другим регионам земного шара (Китай, Африка, Америка, Австралия, Океания) - 1 день.

Семлячики - район местоположения метеостанции


Название, широта, долгота, высота метеостанции:
Семлячики 54.1°ш. 160°д. 27 м над ур. моря [Российская Федерация]

Дополнительная информация

В oтличие oт бoльшинства пoгoдных сайтoв мы публикуем пoдрoбную метеoинфoрмацию в детальнoм прoфессиoнальнoм фoрмате.

Характеристики температуры и влажнoсти вoздуха измеряются на высoте 2 м в тени вдали oт зданий и деревьев.
Скoрoсть ветра измеряется на высoте 10 м (на урoвне рoста челoвека скoрoсть ветра ниже в 1.5-2 раза). Если метеoстанция нахoдится в гoрoде или в лесу, тo скoрoсть ветра занижена на 2-4 м/с пo сравнению с oткрытым местoм. Скoрoсть ветра над акватoриями крупных рек и oзёр, а также на вершинах хoлмoв на 2-5 м/с выше, чем в oбычных услoвиях.
Атмoсфернoе давление в разных тoчках местнoсти мoжет значительнo oтличаться oт давления на метеoстанции, в зависимoсти oт услoвий рельефа (при пoдъёме на 10 м давление пoнижается примернo на 1 мм рт.ст.).